Location: Pedholt
(56.0260°N, 10.2097°E)
Time: 03:59:59
(UTC+00:00)

A-11 Canister half - Visible Passes

Search period start: 06 August 2021 00:00
Search period end: 16 August 2021 00:00
Orbit: 1513 x 1687 km, 47.2° (Epoch: 05 August)

Date Brightness Start Highest point End Pass type
(mag) Time Alt. Az. Time Alt. Az. Time Alt. Az.
06 Aug 10.2 21:11:37 10° W 21:19:23 26° SW 21:26:11 13° S visible
07 Aug 10.2 20:48:38 10° W 20:56:33 27° SW 21:04:12 11° SSE visible
08 Aug 10.2 20:25:40 10° W 20:33:43 29° SW 20:41:52 10° SSE visible
09 Aug 10.2 20:02:44 10° W 20:10:52 30° SW 20:19:09 10° SSE visible
10 Aug 10.2 19:39:47 10° W 19:48:02 31° SW 19:56:26 10° SSE visible
10 Aug 10.9 21:48:27 10° WSW 21:50:21 11° WSW 21:52:15 10° SW visible
11 Aug 10.9 21:24:36 10° WSW 21:27:35 12° SW 21:30:34 10° SW visible
12 Aug 10.9 21:01:06 10° WSW 21:04:49 13° SW 21:08:33 10° SSW visible
13 Aug 10.9 20:37:44 10° W 20:42:02 14° SW 20:46:22 10° SSW visible
14 Aug 10.9 20:14:28 10° W 20:19:15 15° SW 20:24:05 10° SSW visible
15 Aug 10.9 19:51:17 10° W 19:56:28 16° SW 20:01:44 10° SSW visible
